Regional Weather Roundup
Issued by NWS

Home | Current Version | Previous Version | Text Only | Print | Product List | Glossary On
Versions: 1 2 3 4 5 6 7 8 9 10 11 12 13 14 15 16 17 18 19 20 21 22 23 24 25 26 27 28 29 30 31 32 33 34 35 36 37 38 39 40 41 42 43 44 45 46 47 48 49 50
000
ASCA42 TJSJ 240610
RWRPR
PUERTO RICO/U.S. VIRGIN ISLANDS HOURLY WEATHER ROUNDUP
NATIONAL WEATHER SERVICE SAN JUAN PR
200 AM AST SAT JUN 24 2017

PRZ001>002-007>008-010-240700-
PUERTO RICO

CITY           SKY/WX    TMP DP  RH WIND       PRES   REMARKS
SAN JUAN LMM   PTCLDY    81  73  78 SE5       29.99F
PONCE          PTCLDY    79  72  78 E6        30.02
CEIBA          PTCLDY    81  73  78 E8        30.01F
$$

VIZ001>002-240700-
U.S. VIRGIN ISLANDS

CITY           SKY/WX    TMP DP  RH WIND       PRES   REMARKS
CHARLOTTE AMA  CLEAR     82  73  74 E10       29.98F
CHRISTIANSTED  PTCLDY    79  73  83 NE7       29.99F
$$

HOURLY WEATHER ROUNDUP FOR THE NEWS MEDIA

CITY           SKY/WX    TMP DP  RH WIND       PRES   REMARKS
ORLANDO        CLEAR     80  74  81 S8        30.06F
NEW YORK       HVY RAIN  73  72  96 SW10      29.65R FOG
NEWARK         CLOUDY    75  72  90 SW12      29.63R
CHICAGO        CLEAR     66  54  65 W9        29.86R
HARTFORD       CLOUDY    70  68  93 SW12G20   29.61F
BOSTON         CLOUDY    73  70  90 SW12      29.56F
DALLAS         TSTM      78  70  76 E23G30    29.95R
PHILADELPHIA   MOCLDY    83  71  67 SW15G25   29.64F
LOS ANGELES    CLOUDY    63  61  93 SW5       29.92S
WASHINGTON DC  LGT RAIN  76  72  87 SW7       29.66F


USA.gov is the U.S. government's official web portal to all federal, state and local government web resources and services.